Location: Hradec Kralove
(50.2170°N, 15.8330°E)
Time: 08:59:56
(UTC+01:00)

AO-85 - Visible Passes

Search period start: 04 March 2024 00:00
Search period end: 14 March 2024 00:00
Orbit: 516 x 753 km, 64.8° (Epoch: 04 January)

Date Brightness Start Highest point End Pass type
(mag) Time Alt. Az. Time Alt. Az. Time Alt. Az.
04 Mar ? 19:49:12 10° NW 19:54:00 70° NE 19:54:59 54° ESE visible
04 Mar ? 21:29:51 10° WNW 21:32:15 20° W 21:32:15 20° W visible
05 Mar ? 18:28:33 10° NNW 18:32:44 30° NNE 18:36:49 11° E visible
05 Mar ? 20:08:21 10° NW 20:13:10 69° SW 20:14:05 55° S visible
05 Mar ? 21:50:26 10° W 21:51:22 12° W 21:51:22 12° W visible
06 Mar ? 18:47:33 10° NNW 18:52:09 45° NE 18:55:59 15° ESE visible
06 Mar ? 20:27:41 10° NW 20:32:11 38° WSW 20:33:17 34° SSW visible
07 Mar ? 19:06:36 10° NW 19:11:25 76° NE 19:15:16 17° SE visible
07 Mar ? 20:47:23 10° WNW 20:51:04 21° WSW 20:52:34 19° SW visible
08 Mar ? 19:25:45 10° NW 19:30:33 63° SW 19:34:41 15° SSE visible
08 Mar ? 21:08:22 10° W 21:09:46 11° WSW 21:11:11 10° SW visible
09 Mar ? 19:45:06 10° NW 19:49:32 35° WSW 19:54:07 10° S visible
10 Mar ? 18:23:56 10° NW 18:28:47 82° NE 18:33:52 10° SE visible
10 Mar ? 20:04:52 10° WNW 20:08:21 19° WSW 20:11:55 10° SSW visible
11 Mar ? 18:43:05 10° NW 18:47:52 58° SW 18:52:50 10° SSE visible
12 Mar ? 19:02:28 10° NW 19:06:48 32° WSW 19:11:16 10° S visible
13 Mar ? 19:22:19 10° WNW 19:25:35 18° WSW 19:28:54 10° SSW visible
